     2              OBSERVATION DATA    GPS                 RINEX VERSION / TYPE
ASHTORIN CICESE 05 - JUL - 01 09:06                         PGM / RUN BY / DATE
                                                            COMMENT
--> THIS IS THE START OF A NEW SITE <---                    COMMENT
--> THIS IS THE START OF A NEW SITE <---                    COMMENT
Original Marker Name: GUAD                                  COMMENT
Campaign Name: Northern Baja 2001                           COMMENT
4-Character Station Name: GUAD                              COMMENT
6-Character Antenna Code: DMRCHT                            COMMENT
Vertical Measurement Point: BCR                             COMMENT
Vertical Offset to Rinex Ref. Point: 0.0348                 COMMENT
Radial Measurement Point: ECF                               COMMENT
Radial Offset to Rinex Ref. Point: 0.1897                   COMMENT
Antenna Height from Field Measurement: 1.4152 m             COMMENT
Additional Antenna Identification Info.:                    COMMENT
Turborogue and Ashtech Choke Ring                           COMMENT
Original XYZ: -2431161.8179 -4846201.9132 3348036.2477      COMMENT
New XYZ position is based on association with SCEC monument COMMENT
D5S5Z3N7+0011. Position of that monument is believed to be  COMMENT
valid to within 1 m horizontally; vertical accuracy         COMMENT
should be no worse than 3-times this value.                 COMMENT
                                                            COMMENT
Revised Rinex header created by UCSD GPS archive for        COMMENT
GSAC on 30-Nov-2001 (2001:334) 23:59:52 GMT                 COMMENT
For assistance contact dagnew@ucsd.edu                      COMMENT
or anderson@python.ucsd.edu                                 COMMENT
                                                            COMMENT
ISLA GUADALUPE, MELPOMENE BAY                               MARKER NAME
30622                                                       MARKER NUMBER
JGG CICESE (ENSENADA)                                       OBSERVER / AGENCY
782 ASHTECH Z-XII3 CD001D0                                  REC # / TYPE / VERS
002 DORNE-MARGOL. TYPE T                                    ANT # / TYPE
 -2648786.5996 -4921527.4371  3062786.3360                  APPROX POSITION XYZ
        1.3676        0.0000        0.0000                  ANTENNA: DELTA H/E/N
     1     1     0                                          WAVELENGTH FACT L1/2
     7    L1    L2    C1    P1    P2    D1    D2            # / TYPES OF OBSERV
    30                                                      INTERVAL
  2001     5    16    23    20    0.000000                  TIME OF FIRST OBS
  2001     5    16    23    59   30.000000                  TIME OF LAST OBS
                                                            END OF HEADER
 01  5 16 23 20  0.0000000  0  2 29  9                               0.000000000
   -281071.894 9   -204565.01647  22191358.913    22191358.6824   22191367.2314
        -0.000          -0.000
   -147456.163 9   -106650.80345  24210336.998    24210335.9334   24210347.1864
        -0.000          -0.000
 01  5 16 23 20 30.0000000  3  2
GUAD                                                        MARKER NAME
--> THIS IS THE START OF A NEW SITE <---                    COMMENT
 01  5 16 23 20 30.0000000  0 10 29 23 21  3 31 18 17  9 15 14       0.000000000
   -406999.111 9   -302689.93247  22167395.947    22167395.4424   22167403.9624
        -0.000          -0.000
     12728.042 9      8990.11047  22785856.055    22785855.4814   22785862.3594
        -0.000          -0.000
   -173246.867 9   -124976.64052         0.000           0.0004          0.0005
        -0.000          -0.000
   -205629.465 9   -144630.16552         0.000           0.0004          0.0005
        -0.000          -0.000
   -366933.91119   -273896.90545         0.000           0.0005   24308091.8234
        -0.000          -0.000
      2825.759 9      2013.86748  21947921.107    21947920.2114   21947924.5324
        -0.000          -0.000
     -4436.077 9     -3261.53647  22145565.186    22145564.1754   22145572.5394
        -0.000          -0.000
   -206934.269 8   -152997.18646  24199019.234    24199015.5404   24199030.6434
        -0.000          -0.000
    -68168.395 9    -47638.29248  21255976.101    21255975.5344   21255982.3614
        -0.000          -0.000
   -377736.687 9   -273152.74748  21793802.796    21793802.2254   21793809.1184
        -0.000          -0.000
 01  5 16 23 21  0.0000000  0 10 29 23 21  3 31 18 17  9 15 14      -0.000000001
  -1358680.927 9  -1044259.99048  21686504.078    21686503.9264   21686512.4364
        -0.000          -0.000
   -809448.861 9   -631667.22547  22329608.690    22329608.0234   22329614.8224
        -0.000          -0.000
  -1054301.646 9   -678066.26552         0.000           0.0004          0.0005
        -0.000          -0.000
  -1099884.82519   -675927.82353         0.000           0.0005          0.0005
        -0.000          -0.000
  -1314563.927 9  -1012309.87245  23827963.172    23827962.4054   23827970.0964
        -0.000          -0.000
   -822282.221 9   -640927.42948  21491114.829    21491114.7914   21491119.5964
        -0.000          -0.000
   -831464.290 9   -647699.15247  21688394.066    21688393.5274   21688401.8304
        -0.000          -0.000
  -1092039.548 9   -842689.52046  23730798.100    23730795.0414   23730808.7384
        -0.000          -0.000
   -918446.275 9   -710192.49548  20794381.446    20794380.5804   20794387.4094
        -0.000          -0.000
  -1324949.349 9  -1011240.39248  21313761.336    21313761.1404   21313768.0754
        -0.000          -0.000
 01  5 16 23 21 30.0000000  0 10 29 23 21  3 31 18 17  9 15 14       0.000000009
  -1437754.154 9  -1105875.30548  21671456.870    21671456.7234   21671465.2434
        -0.000          -0.000
   -759374.090 9   -592647.93647  22339137.882    22339137.0174   22339143.8024
        -0.000          -0.000
  -1062992.863 9   -684293.17152         0.000           0.0004          0.0005
        -0.000          -0.000
  -1121343.86219   -692626.00553         0.000           0.0005          0.0005
        -0.000          -0.000
  -1389559.097 8  -1070747.59745  23813691.621    23813690.8154   23813698.7454
        -0.000          -0.000
   -775045.884 9   -604119.90248  21500103.846    21500103.5484   21500108.4114
        -0.000          -0.000
   -785922.340 9   -612211.96547  21697060.424    21697059.8484   21697068.1664
        -0.000          -0.000
  -1104416.370 9   -852333.72346  23728442.692    23728440.6824   23728453.1664
        -0.000          -0.000
   -896144.603 9   -692814.58348  20798625.221    20798624.4724   20798631.3134
        -0.000          -0.000
  -1399490.937 9  -1069324.60348  21299576.683    21299576.3204   21299583.2784
        -0.000          -0.000
 01  5 16 23 22  0.0000000  0 10 29 23 21  3 31 18 17  9 15 14      -0.000000075
  -1516472.866 9  -1167214.38048  21656477.163    21656477.0034   21656485.4884
        -0.000          -0.000
   -709297.387 9   -553627.13947  22348667.127    22348666.3304   22348672.9684
        -0.000          -0.000
  -1071573.741 9   -690416.01252         0.000           0.0004          0.0005
        -0.000          -0.000
  -1142259.09719   -708905.04453         0.000           0.0005          0.0005
        -0.000          -0.000
  -1464172.758 9  -1128888.10945  23799493.049    23799492.2944   23799499.9014
        -0.000          -0.000
   -727715.676 9   -567239.23548  21509110.616    21509110.2434   21509115.1634
        -0.000          -0.000
   -740059.302 9   -576474.57847  21705787.989    21705787.3764   21705795.7004
        -0.000          -0.000
  -1116315.512 8   -861605.68446  23726177.476    23726175.9924   23726188.2964
        -0.000          -0.000
   -873512.998 9   -675179.57948  20802931.949    20802931.1704   20802938.0064
        -0.000          -0.000
  -1473615.337 9  -1127083.73548  21285471.240    21285470.8654   21285477.8354
        -0.000          -0.000
 01  5 16 23 22 30.0000000  0 10 29 23 21  3 31 18 17  9 15 14       0.000000012
  -1594825.521 9  -1228268.21648  21641567.013    21641566.8754   21641575.3574
        -0.000          -0.000
   -659209.708 9   -514597.80047  22358198.491    22358197.7224   22358204.4394
        -0.000          -0.000
  -1080034.925 9   -567328.12552         0.000           0.0004          0.0005
        -0.000          -0.000
  -1162620.288 9   -558055.61947         0.000           0.0004   21638942.7194
        -0.000          -0.000
  -1538392.887 9  -1186721.96946  23785369.566    23785369.0414   23785376.4944
        -0.000          -0.000
   -680282.830 9   -530278.58948  21518136.801    21518136.3444   21518141.3234
        -0.000          -0.000
   -693864.980 9   -540479.06147  21714578.604    21714577.9804   21714586.2834
        -0.000          -0.000
  -1127725.827 8   -870496.74045  23724005.169    23724004.2244   23724016.4864
        -0.000          -0.000
   -850540.862 9   -657279.22548  20807303.462    20807302.6944   20807309.5164
        -0.000          -0.000
  -1547310.800 9  -1184508.63748  21271447.448    21271447.0444   21271454.0174
        -0.000          -0.000
 01  5 16 23 23  0.0000000  0 10 29 23 21  3 31 18 17  9 15 14       0.000000015
  -1672811.055 9  -1289035.98948  21626726.787    21626726.6294   21626735.1044
        -0.000          -0.000
   -609112.486 9   -475561.03547  22367731.627    22367730.8924   22367737.6414
        -0.000          -0.000
  -1088378.627 9   -573356.39952         0.000           0.0004          0.0005
        -0.000          -0.000
  -1182427.546 9   -573489.83948  21635166.746    21635166.5264   21635173.5594
        -0.000          -0.000
  -1612218.162 9  -1244248.09046  23771321.143    23771320.6474   23771328.2784
        -0.000          -0.000
   -632749.150 9   -493239.37148  21527182.196    21527181.7024   21527186.6874
        -0.000          -0.000
   -647339.506 9   -504225.50647  21723432.249    21723431.5914   21723439.8554
        -0.000          -0.000
  -1138646.143 9   -879005.98546  23721927.281    23721926.4114   23721938.0524
        -0.000          -0.000
   -827228.053 9   -639113.40448  20811739.768    20811738.9834   20811745.7954
        -0.000          -0.000
  -1620576.259 9  -1241598.47148  21257505.490    21257505.0164   21257511.9924
        -0.000          -0.000
 01  5 16 23 23 30.0000000  0 10 29 23 21  3 31 18 17  9 15 14       0.000000016
  -1750427.728 9  -1349516.33748  21611956.797    21611956.6044   21611965.0704
        -0.000          -0.000
   -559006.336 9   -436517.29147  22377266.500    22377265.8114   22377272.4954
        -0.000          -0.000
  -1096605.793 9   -579252.82952         0.000           0.0004          0.0005
        -0.000          -0.000
  -1201680.363 9   -588492.02748  21631503.072    21631502.8124   21631509.7774
        -0.000          -0.000
  -1685646.400 9  -1301464.79446  23757348.107    23757347.5414   23757355.5164
        -0.000          -0.000
   -585115.400 9   -456122.17748  21536246.530    21536246.0574   21536251.1874
        -0.000          -0.000
   -600482.512 9   -467713.62747  21732348.911    21732348.2294   21732356.5504
        -0.000          -0.000
  -1149075.025 8   -887132.28846  23719942.858    23719942.1364   23719953.4644
        -0.000          -0.000
   -803573.698 9   -620681.44748  20816241.060    20816240.2774   20816247.0914
        -0.000          -0.000
  -1693409.666 9  -1298351.64148  21243645.733    21243645.2314   21243652.1924
        -0.000          -0.000
 01  5 16 23 24  0.0000000  0 10 29 23 21  3 31 18 17  9 15 14       0.000000016
  -1827671.292 9  -1409705.95848  21597257.729    21597257.5604   21597265.9844
        -0.000          -0.000
   -508889.643 9   -397465.36147  22386803.409    22386802.6694   22386809.5504
        -0.000          -0.000
  -1104714.40119   -457612.44548         0.000           0.0005   21459484.5084
        -0.000          -0.000
  -1220376.012 9   -603060.05648  21627945.466    21627945.1354   21627952.1324
        -0.000          -0.000
  -1758672.728 9  -1358368.38446  23743451.711    23743451.0614   23743459.0884
        -0.000          -0.000
   -537380.351 9   -418926.04648  21545330.287    21545329.7894   21545334.8774
        -0.000          -0.000
   -553291.185 9   -430941.22047  21741329.085    21741328.5114   21741336.7874
        -0.000          -0.000
  -1159008.805 8   -894872.79045  23718051.941    23718051.2674   23718062.8014
        -0.000          -0.000
   -779574.855 9   -601981.05948  20820807.892    20820807.1254   20820813.9544
        -0.000          -0.000
  -1765807.002 9  -1354765.02048  21229868.902    21229868.4184   21229875.3594
        -0.000          -0.000
 01  5 16 23 24 30.0000000  0 10 29 23 21  3 31 18 17  9 15 14       0.000000015
  -1904539.751 9  -1469603.28848  21582630.072    21582629.8664   21582638.2904
        -0.000          -0.000
   -458762.860 9   -358405.55247  22396342.258    22396341.5354   22396348.4254
        -0.000          -0.000
  -1112705.154 9   -463838.98248  21457958.078    21457957.3554   21457963.8624
        -0.000          -0.000
  -1238513.495 9   -617193.15048  21624494.005    21624493.6554   21624500.7114
        -0.000          -0.000
  -1831294.910 9  -1414957.12446  23729632.251    23729631.5884   23729639.4714
        -0.000          -0.000
   -489544.867 9   -381651.66148  21554433.104    21554432.5774   21554437.7694
        -0.000          -0.000
   -505764.838 9   -393907.77147  21750373.186    21750372.5604   21750380.8544
        -0.000          -0.000
  -1168445.947 9   -902226.28845  23716255.217    23716254.7184   23716266.2944
        -0.000          -0.000
   -755230.316 9   -583011.29948  20825440.609    20825439.8084   20825446.6224
        -0.000          -0.000
  -1837766.225 9  -1410837.00948  21216175.467    21216174.9484   21216181.8914
        -0.000          -0.000
 01  5 16 23 25  0.0000000  0 10 29 23 21  3 31 18 17  9 15 14       0.000000018
  -1981032.489 9  -1529207.85048  21568073.865    21568073.6844   21568082.0534
        -0.000          -0.000
   -408627.682 9   -319339.20347  22405882.797    22405882.0514   22405888.9274
        -0.000          -0.000
  -1120579.998 9   -469975.20048  21456459.470    21456458.7634   21456465.2924
        -0.000          -0.000
  -1256094.085 9   -630892.30248  21621148.537    21621148.2004   21621155.2264
        -0.000          -0.000
  -1903511.809 9  -1471229.96946  23715889.761    23715889.1624   23715897.1164
        -0.000          -0.000
   -441610.957 9   -344300.57348  21563554.642    21563554.1124   21563559.2174
        -0.000          -0.000
   -457904.094 9   -356613.75147  21759480.927    21759480.2554   21759488.5394
        -0.000          -0.000
  -1177385.737 9   -909192.24246  23714554.605    23714554.0554   23714564.5854
        -0.000          -0.000
   -730540.354 9   -563772.38548  20830139.030    20830138.2154   20830144.9904
        -0.000          -0.000
  -1909286.558 9  -1466567.00948  21202565.513    21202565.0104   21202571.9324
        -0.000          -0.000
 01  5 16 23 25 30.0000000  0 10 29 23 21  3 31 18 17  9 15 14       0.000000020
  -2057149.381 9  -1588519.54948  21553589.253    21553589.0414   21553597.3844
        -0.000          -0.000
   -358486.395 9   -280268.10147  22415424.355    22415423.6954   22415430.5804
        -0.000          -0.000
  -1128341.421 9   -476023.03148  21454982.538    21454981.8754   21454988.3474
        -0.000          -0.000
  -1273118.927 9   -644158.40148  21617908.818    21617908.4634   21617915.4894
        -0.000          -0.000
  -1975322.751 9  -1527186.44446  23702224.487    23702223.9124   23702232.0314
        -0.000          -0.000
   -393581.537 9   -306875.06848  21572694.322    21572693.7954   21572698.9274
        -0.000          -0.000
   -409710.314 9   -319060.21947  21768651.969    21768651.3264   21768659.5514
        -0.000          -0.000
  -1185828.367 9   -915770.80946  23712948.815    23712948.2664   23712958.2064
        -0.000          -0.000
   -705505.980 9   -544265.09448  20834902.934    20834902.1074   20834908.9224
        -0.000          -0.000
  -1980367.836 9  -1521954.89148  21189039.150    21189038.6444   21189045.5454
        -0.000          -0.000
 01  5 16 23 26  0.0000000  0 10 29 23 21  3 31 18 17  9 15 14       0.000000020
  -2132886.796 9  -1647535.54948  21539176.783    21539176.5794   21539184.8454
        -0.000          -0.000
   -308337.948 9   -241191.40247  22424967.429    22424966.7184   22424973.5304
        -0.000          -0.000
  -1135988.319 9   -481981.61748  21453527.366    21453526.6934   21453533.1844
        -0.000          -0.000
  -1289585.702 9   -656989.63848  21614775.327    21614774.9634   21614782.0104
        -0.000          -0.000
  -2046723.896 9  -1582823.66846  23688637.277    23688636.6984   23688644.8634
        -0.000          -0.000
   -345455.614 9   -269374.35948  21581852.431    21581851.8754   21581856.9864
        -0.000          -0.000
   -361181.298 9   -281245.46147  21777886.808    21777886.1634   21777894.3974
        -0.000          -0.000
  -1193771.033 9   -921959.73346  23711437.641    23711437.1334   23711446.8174
        -0.000          -0.000
   -680124.446 9   -524487.28748  20839732.900    20839732.0944   20839738.9084
        -0.000          -0.000
  -2051006.419 9  -1576997.81748  21175597.008    21175596.5104   21175603.3774
        -0.000          -0.000
 01  5 16 23 26 30.0000000  0 10 29 23 21  3 31 18 17  9 15 14       0.000000021
  -2208242.996 9  -1706254.50948  21524836.891    21524836.6764   21524844.9234
        -0.000          -0.000
   -258182.746 9   -202109.46147  22434511.632    22434510.9214   22434517.7974
        -0.000          -0.000
  -1143521.303 9   -487851.44248  21452093.886    21452093.2254   21452099.7324
        -0.000          -0.000
  -1305493.782 9   -669385.53448  21611748.095    21611747.7394   21611754.7994
        -0.000          -0.000
  -2117712.953 9  -1638139.83646  23675128.578    23675127.9404   23675135.8244
        -0.000          -0.000
   -297233.921 9   -231799.02648  21591028.657    21591028.1524   21591033.2844
        -0.000          -0.000
   -312316.547 9   -243169.09647  21787185.547    21787184.8654   21787193.0884
        -0.000          -0.000
  -1201211.978 9   -927757.76246  23710021.792    23710021.4034   23710030.5814
        -0.000          -0.000
   -654394.774 9   -504438.20448  20844629.141    20844628.3244   20844635.1654
        -0.000          -0.000
  -2121200.552 9  -1631694.42348  21162239.447    21162238.9074   21162245.7574
        -0.000          -0.000
 01  5 16 23 27  0.0000000  0 10 29 23 21  3 31 18 17  9 15 14       0.000000021
  -2283214.905 9  -1764674.02848  21510570.101    21510569.8834   21510578.0904
        -0.000          -0.000
   -208020.057 9   -163021.68347  22444057.331    22444056.6534   22444063.3754
        -0.000          -0.000
  -1150939.719 9   -493631.99448  21450682.221    21450681.5924   21450688.1124
        -0.000          -0.000
  -1320841.969 9   -681345.15548  21608827.419    21608827.0704   21608834.1314
        -0.000          -0.000
  -2188286.450 9  -1693132.11346  23661698.846    23661698.2774   23661706.0394
        -0.000          -0.000
   -248916.156 9   -194148.83848  21600223.286    21600222.7774   21600227.9284
        -0.000          -0.000
   -263114.276 9   -204829.73247  21796548.492    21796547.8144   21796555.9514
        -0.000          -0.000
  -1208148.410 9   -933162.68446  23708701.659    23708701.2894   23708710.3594
        -0.000          -0.000
   -628315.147 9   -484116.43248  20849591.944    20849591.1084   20849597.9944
        -0.000          -0.000
  -2190947.141 9  -1686042.29648  21148967.036    21148966.4954   21148973.3234
        -0.000          -0.000
 01  5 16 23 27 30.0000000  0 10 29 23 21  3 31 18 17  9 15 14       0.000000019
  -2357802.737 9  -1822794.25948  21496376.414    21496376.1994   21496384.3824
        -0.000          -0.000
   -157852.330 9   -123929.96847  22453604.090    22453603.3744   22453609.9764
        -0.000          -0.000
  -1158246.621 9   -499325.64848  21449291.773    21449291.1254   21449297.6294
        -0.000          -0.000
  -1335631.884 9   -692869.75148  21606013.029    21606012.6694   21606019.7684
        -0.000          -0.000
  -2258444.357 9  -1747800.52846  23648348.137    23648347.6004   23648355.5944
        -0.000          -0.000
   -200505.136 9   -156425.98648  21609435.618    21609435.1394   21609440.3534
        -0.000          -0.000
   -213576.228 9   -166228.71547  21805975.318    21805974.6884   21805982.8324
        -0.000          -0.000
  -1214581.089 8   -938175.05446  23707477.000    23707476.6864   23707486.0394
        -0.000          -0.000
   -601886.644 9   -463522.79748  20854621.137    20854620.3274   20854627.2104
        -0.000          -0.000
  -2260246.416 9  -1740041.60948  21135779.736    21135779.1954   21135786.0114
        -0.000          -0.000
 01  5 16 23 28  0.0000000  0 10 29 23 21  3 31 18 17  9 15 14       0.000000018
  -2432003.274 9  -1880612.70548  21482256.412    21482256.2244   21482264.3414
        -0.000          -0.000
   -107678.381 9    -84833.42447  22463151.866    22463151.1644   22463157.7804
        -0.000          -0.000
  -1165441.221 9   -504931.79748  21447922.672    21447922.0524   21447928.5114
        -0.000          -0.000
  -1349861.127 9   -703957.46348  21603305.297    21603304.9434   21603312.0214
        -0.000          -0.000
  -2328182.709 9  -1802142.03546  23635077.446    23635076.8674   23635084.9404
        -0.000          -0.000
   -152000.079 9   -118629.83948  21618666.057    21618665.4894   21618670.5064
        -0.000          -0.000
   -163700.149 9   -127364.28747  21815466.405    21815465.7784   21815473.9934
        -0.000          -0.000
  -1220507.059 8   -942792.56846  23706348.835    23706348.5084   23706358.6314
        -0.000          -0.000
   -575106.617 9   -442655.25448  20859717.261    20859716.4394   20859723.3224
        -0.000          -0.000
  -2329094.827 9  -1793689.60348  21122678.281    21122677.7354   21122684.5004
        -0.000          -0.000
 01  5 16 23 28 30.0000000  0 10 29 23 21  3 31 18 17  9 15 14       0.000000019
  -2505813.770 9  -1938127.23148  21468210.639    21468210.4674   21468218.5324
        -0.000          -0.000
    -57498.007 9    -45731.83847  22472700.935    22472700.2934   22472706.7604
        -0.000          -0.000
  -1172523.609 9   -510450.51048  21446574.905    21446574.2864   21446580.7554
        -0.000          -0.000
  -1363528.731 9   -714607.53748  21600704.465    21600704.0944   21600711.1334
        -0.000          -0.000
  -2397498.450 9  -1856154.30746  23621887.153    23621886.5284   23621894.4344
        -0.000          -0.000
   -103401.167 9    -80760.57248  21627914.152    21627913.5974   21627918.6554
        -0.000          -0.000
   -113484.869 9    -88235.56047  21825022.150    21825021.5224   21825029.7684
        -0.000          -0.000
  -1225924.073 9   -947013.53446  23705317.469    23705317.4114   23705327.5094
        -0.000          -0.000
   -547973.547 9   -421512.61948  20864880.541    20864879.7344   20864886.6074
        -0.000          -0.000
  -2397489.850 9  -1846984.30848  21109663.057    21109662.5254   21109669.2694
        -0.000          -0.000
 01  5 16 23 29  0.0000000  0 10 29 23 21  3 31 18 17  9 15 14       0.000000021
  -2579236.375 9  -1995339.50848  21454238.733    21454238.5304   21454246.5234
        -0.000          -0.000
     -7315.453 9     -6628.57947  22482250.293    22482249.6434   22482256.3094
        -0.000          -0.000
  -1179497.734 9   -515884.86148  21445247.801    21445247.1744   21445253.6064
        -0.000          -0.000
  -1376638.174 9   -724822.67648  21598209.855    21598209.4614   21598216.5414
        -0.000          -0.000
  -2466393.035 9  -1909838.36246  23608776.867    23608776.2754   23608784.1274
        -0.000          -0.000
    -54712.883 9    -42821.66548  21637179.130    21637178.5634   21637183.6674
        -0.000          -0.000
    -62933.715 9    -48845.10347  21834641.739    21834641.0924   21834649.3874
        -0.000          -0.000
  -1230834.630 9   -950839.84046  23704383.297    23704383.0774   23704393.0354
        -0.000          -0.000
   -520490.341 9   -400097.14848  20870110.421    20870109.6244   20870116.5034
        -0.000          -0.000
  -2465433.581 9  -1899927.36248  21096733.722    21096733.1764   21096739.9144
        -0.000          -0.000
 01  5 16 23 29 30.0000000  0 10 29 23 21  3 31 18 17  9 15 14       0.000000023
  -2652267.670 9  -2052246.87048  21440341.295    21440341.0514   21440348.9974
        -0.000          -0.000
     42870.296 9     32477.17847  22491800.273    22491799.6914   22491806.3894
        -0.000          -0.000
  -1186362.823 9   -521234.24248  21443941.456    21443940.8094   21443947.1914
        -0.000          -0.000
  -1389187.879 9   -734601.65648  21595821.722    21595821.3044   21595828.4094
        -0.000          -0.000
  -2534863.037 9  -1963191.51046  23595747.306    23595746.7454   23595754.8074
        -0.000          -0.000
     -5934.678 9     -4812.68748  21646461.272    21646460.7374   21646465.8754
        -0.000          -0.000
    -12044.831 9     -9191.48347  21844325.593    21844324.9884   21844333.2794
        -0.000          -0.000
  -1235235.799 9   -954269.25546  23703546.266    23703545.9854   23703555.2874
        -0.000          -0.000
   -492654.812 9   -378407.13848  20875407.412    20875406.6074   20875413.4634
        -0.000          -0.000
  -2532922.660 9  -1952516.14048  21083890.913    21083890.3574   21083897.0804
        -0.000          -0.000
 01  5 16 23 30  0.0000000  0 10 29 23 21  3 31 18 17  9 15 14       0.000000024
  -2724907.724 9  -2108849.36648  21426518.219    21426518.0304   21426525.9064
        -0.000          -0.000
     93057.285 9     71583.90047  22501350.676    22501349.9504   22501356.7534
        -0.000          -0.000
  -1193121.285 9   -526500.53948  21442655.382    21442654.7094   21442661.1104
        -0.000          -0.000
  -1401179.079 9   -743945.44348  21593539.941    21593539.5044   21593546.6364
        -0.000          -0.000
  -2602907.583 9  -2016213.19446  23582798.925    23582798.3584   23582806.3884
        -0.000          -0.000
     42931.202 9     33264.61148  21655760.185    21655759.6594   21655764.7164
        -0.000          -0.000
     39180.507 9     30724.30647  21854073.661    21854072.9604   21854081.2214
        -0.000          -0.000
  -1239127.748 9   -957301.85046  23702806.190    23702805.7784   23702814.5684
        -0.000          -0.000
   -464467.698 9   -356443.17248  20880771.277    20880770.4534   20880777.3194
        -0.000          -0.000
  -2599956.575 9  -2004750.25048  21071134.674    21071134.1284   21071140.8474
        -0.000          -0.000
 01  5 16 23 30 30.0000000  0 10 29 23 21  3 31 18 17  9 15 14       0.000000024
  -2797153.067 9  -2165144.30048  21412770.304    21412770.1184   21412777.9534
        -0.000          -0.000
    143246.654 9    110692.46347  22510901.203    22510900.6284   22510907.5574
        -0.000          -0.000
  -1199771.597 9   -531682.56648  21441389.775    21441389.1554   21441395.6094
        -0.000          -0.000
  -1412609.866 9   -752852.54548  21591364.707    21591364.2904   21591371.3704
        -0.000          -0.000
  -2670523.056 9  -2068900.57746  23569932.110    23569931.5264   23569939.3994
        -0.000          -0.000
     91885.580 9     71410.86048  21665075.944    21665075.4004   21665080.4874
        -0.000          -0.000
     90744.610 9     70904.07247  21863885.970    21863885.3274   21863893.6324
        -0.000          -0.000
  -1242507.719 9   -959935.46446  23702162.958    23702162.5654   23702171.5324
        -0.000          -0.000
   -435926.409 9   -334203.22248  20886202.602    20886201.7534   20886208.6024
        -0.000          -0.000
  -2666532.368 9  -2056627.37748  21058465.685    21058465.1284   21058471.7974
        -0.000          -0.000
 01  5 16 23 31  0.0000000  0 10 29 23 21  3 31 18 17  9 15 14       0.000000023
  -2869001.643 9  -2221130.07048  21399097.918    21399097.6934   21399105.4994
        -0.000          -0.000
    193438.399 9    149802.91147  22520452.563    22520451.8364   22520458.6614
        -0.000          -0.000
  -1206314.603 9   -536780.97348  21440144.658    21440144.0274   21440150.4964
        -0.000          -0.000
  -1423479.458 9   -761322.35348  21589296.321    21589295.9024   21589303.0034
        -0.000          -0.000
  -2737706.949 9  -2121251.57446  23557147.310    23557146.6974   23557154.6694
        -0.000          -0.000
    140927.880 9    109625.63948  21674408.449    21674407.9304   21674412.9114
        -0.000          -0.000
    142647.905 9    111348.13847  21873762.851    21873762.2694   21873770.5934
        -0.000          -0.000
  -1245373.856 9   -962168.70846  23701617.406    23701617.0824   23701625.9694
        -0.000          -0.000
   -407029.940 9   -311686.51548  20891701.478    20891700.6074   20891707.4834
        -0.000          -0.000
  -2732647.860 9  -2108145.83448  21045884.264    21045883.7284   21045890.3414
        -0.000          -0.000
 01  5 16 23 31 30.0000000  0 10 29 23 21  3 31 18 17  9 15 14       0.000000023
  -2940452.733 9  -2276806.10848  21385501.144    21385500.9264   21385508.6864
        -0.000          -0.000
    243631.318 9    188914.24747  22530003.840    22530003.1434   22530010.1974
        -0.000          -0.000
  -1212751.658 9   -541796.82148  21438919.695    21438919.0954   21438925.5004
        -0.000          -0.000
  -1433788.675 9   -769355.50748  21587334.553    21587334.1404   21587341.2504
        -0.000          -0.000
  -2804458.050 9  -2173265.39646  23544445.151    23544444.5004   23544452.3624
        -0.000          -0.000
    190056.519 9    147907.68248  21683757.345    21683756.8174   21683761.9924
        -0.000          -0.000
    194890.090 9    152056.26947  21883704.320    21883703.7274   21883712.0454
        -0.000          -0.000
  -1247725.800 8   -964001.27945  23701169.391    23701168.9144   23701178.0544
        -0.000          -0.000
   -377778.455 9   -288893.16148  20897267.858    20897266.9834   20897273.9044
        -0.000          -0.000
  -2798302.294 9  -2159305.01948  21033390.588    21033390.0274   21033396.6034
        -0.000          -0.000
 01  5 16 23 32  0.0000000  0 10 29 23 21  3 31 18 17  9 15 14       0.000000021
  -3011502.757 9  -2332169.63048  21371980.666    21371980.4564   21371988.1904
        -0.000          -0.000
    293826.501 9    228027.35647  22539555.835    22539555.1604   22539562.2464
        -0.000          -0.000
  -1219082.000 9   -546729.51848  21437715.127    21437714.4794   21437720.8424
        -0.000          -0.000
  -1443535.762 9   -776950.64748  21585479.758    21585479.3544   21585486.3934
        -0.000          -0.000
  -2870772.327 9  -2224938.82246  23531826.042    23531825.4264   23531833.2594
        -0.000          -0.000
    239272.427 9    186257.74148  21693122.881    21693122.3344   21693127.4254
        -0.000          -0.000
    247473.175 9    193030.03647  21893710.579    21893710.0104   21893718.3034
        -0.000          -0.000
  -1249560.925 8   -965431.19845  23700819.192    23700818.9564   23700829.0564
        -0.000          -0.000
   -348169.490 9   -265821.25448  20902902.207    20902901.3624   20902908.3164
        -0.000          -0.000
  -2863492.380 9  -2210102.38348  21020985.282    21020984.7154   21020991.2684
        -0.000          -0.000
 01  5 16 23 32 30.0000000  0 10 29 23 21  3 31 18 17  9 15 14       0.000000023
  -3082151.811 9  -2387220.70948  21358536.520    21358536.3034   21358544.0244
        -0.000          -0.000
    344022.018 9    267140.73247  22549107.680    22549106.9484   22549114.0134
        -0.000          -0.000
  -1225307.320 9   -551580.37548  21436530.440    21436529.8194   21436536.2054
        -0.000          -0.000
  -1452722.048 9   -784108.79348  21583731.669    21583731.2844   21583738.3124
        -0.000          -0.000
  -2936649.412 9  -2276271.50146  23519289.747    23519289.1454   23519297.2384
        -0.000          -0.000
    288573.358 9    224674.04048  21702504.540    21702504.0194   21702509.2544
        -0.000          -0.000
    300395.878 9    234268.43347  21903781.465    21903780.9374   21903789.2814
        -0.000          -0.000
  -1250879.446 9   -966458.55646  23700568.466    23700568.3774   23700578.2914
        -0.000          -0.000
   -318203.698 9   -242471.30448  20908604.510    20908603.6854   20908610.6284
        -0.000          -0.000
  -2928217.792 9  -2260537.66148  21008668.387    21008667.8224   21008674.3374
        -0.000          -0.000
 01  5 16 23 33  0.0000000  0 10 29 23 21  3 31 18 17  9 15 14       0.000000025
  -3152399.913 9  -2441959.36048  21345168.660    21345168.4484   21345176.1204
        -0.000          -0.000
    394215.830 9    306252.77647  22558659.109    22558658.5154   22558665.5954
        -0.000          -0.000
  -1231430.288 9   -556351.47048  21435365.257    21435364.6164   21435370.9784
        -0.000          -0.000
  -1461349.279 9   -790831.31348  21582089.994    21582089.6004   21582096.6104
        -0.000          -0.000
  -3002088.522 9  -2327263.01546  23506837.177    23506836.6054   23506844.5104
        -0.000          -0.000
    337956.959 9    263154.76948  21711901.984    21711901.4534   21711906.5754
        -0.000          -0.000
    353656.786 9    275770.36447  21913916.721    21913916.1824   21913924.5154
        -0.000          -0.000
  -1251681.890 9   -967083.71646  23700416.380    23700416.0924   23700425.6004
        -0.000          -0.000
   -287881.933 9   -218843.97948  20914374.575    20914373.7804   20914380.7034
        -0.000          -0.000
  -2992478.626 9  -2310610.93348  20996439.882    20996439.3284   20996445.8044
        -0.000          -0.000
 01  5 16 23 33 30.0000000  0 10 29 23 21  3 31 18 17  9 15 14       0.000000027
  -3222245.115 9  -2496384.06748  21331877.474    21331877.2394   21331884.8944
        -0.000          -0.000
    444407.866 9    345363.43047  22568210.457    22568209.7544   22568216.8924
        -0.000          -0.000
  -1237451.340 9   -561043.15248  21434219.471    21434218.8394   21434225.2164
        -0.000          -0.000
  -1469416.929 9   -797117.80148  21580554.764    21580554.3934   21580561.3414
        -0.000          -0.000
  -3067087.708 9  -2377911.71746  23494468.363    23494467.7994   23494475.4874
        -0.000          -0.000
    387422.760 9    301699.54648  21721314.997    21721314.4574   21721319.6664
        -0.000          -0.000
    407256.686 9    317536.43847  21924116.548    21924116.0104   21924124.3134
        -0.000          -0.000
  -1251966.687 9   -967305.53746  23700362.725    23700362.3604   23700371.1774
        -0.000          -0.000
   -257203.337 9   -194938.60148  20920212.585    20920211.7794   20920218.6654
        -0.000          -0.000
  -3056273.229 9  -2360320.90848  20984300.105    20984299.5524   20984306.0174
        -0.000          -0.000
 01  5 16 23 34  0.0000000  0 10 29 23 21  3 31 18 17  9 15 14       0.000000027
  -3291685.283 9  -2550493.15848  21318663.283    21318663.0974   21318670.7444
        -0.000          -0.000
    494598.394 9    384472.91447  22577761.309    22577760.6614   22577767.7564
        -0.000          -0.000
  -1243370.397 9   -565655.35848  21433093.095    21433092.4794   21433098.8234
        -0.000          -0.000
  -1476924.491 9   -802967.84948  21579126.156    21579125.7624   21579132.7974
        -0.000          -0.000
  -3131644.348 9  -2428215.49046  23482183.431    23482182.9334   23482190.8274
        -0.000          -0.000
    436970.506 9    340308.17148  21730743.551    21730743.0204   21730748.2874
        -0.000          -0.000
    461196.363 9    359567.28647  21934381.022    21934380.4444   21934388.7904
        -0.000          -0.000
  -1251732.336 9   -967122.81846  23700407.635    23700407.1604   23700415.6084
        -0.000          -0.000
   -226166.481 9   -170754.05448  20926118.710    20926117.8904   20926124.7724
        -0.000          -0.000
  -3119599.154 9  -2409665.67948  20972249.490    20972248.9444   20972255.3664
        -0.000          -0.000
 01  5 16 23 34 30.0000000  0 10 29 23 21  3 31 18 17  9 15 14       0.000000027
  -3360718.016 9  -2604284.77148  21305526.686    21305526.5114   21305534.1424
        -0.000          -0.000
    544787.941 9    423581.63847  22587312.246    22587311.5694   22587318.5934
        -0.000          -0.000
  -1249187.153 9   -570187.84948  21431986.196    21431985.5654   21431991.8974
        -0.000          -0.000
  -1483870.992 9   -808380.70148  21577804.272    21577803.8974   21577810.9734
        -0.000          -0.000
  -3195755.316 9  -2478172.06246  23469983.650    23469983.1184   23469990.9174
        -0.000          -0.000
    486600.176 9    378980.64948  21740187.802    21740187.2824   21740192.4274
        -0.000          -0.000
    515476.883 9    401863.72047  21944710.403    21944709.7834   21944718.1904
        -0.000          -0.000
  -1250976.796 9   -966534.01046  23700551.130    23700550.7404   23700558.9404
        -0.000          -0.000
   -194769.694 9   -146289.04348  20932093.334    20932092.5344   20932099.4464
        -0.000          -0.000
  -3182454.063 9  -2458643.42748  20960288.555    20960287.9954   20960294.4094
        -0.000          -0.000
 01  5 16 23 35  0.0000000  0 10 29 23 21  3 31 18 17  9 15 14       0.000000027
  -3429341.809 9  -2657757.72648  21292467.902    21292467.7224   21292475.3244
        -0.000          -0.000
    594975.958 9    462689.14947  22596862.822    22596862.1284   22596869.1934
        -0.000          -0.000
  -1254902.652 9   -574641.44148  21430898.507    21430897.8984   21430904.2304
        -0.000          -0.000
  -1490256.710 9   -813356.58148  21576589.188    21576588.7684   21576595.7644
        -0.000          -0.000
  -3259418.945 9  -2527780.03246  23457868.793    23457868.1874   23457876.0614
        -0.000          -0.000
    536310.948 9    417716.30748  21749647.519    21749646.9734   21749652.1274
        -0.000          -0.000
    570098.406 9    444425.87347  21955104.667    21955103.9984   21955112.3724
        -0.000          -0.000
  -1249699.289 9   -965538.51046  23700794.164    23700793.7134   23700801.7544
        -0.000          -0.000
   -163012.612 9   -121543.28348  20938136.473    20938135.6904   20938142.6354
        -0.000          -0.000
  -3244836.590 9  -2507253.08748  20948417.503    20948416.9334   20948423.3244
        -0.000          -0.000
 01  5 16 23 35 30.0000000  0 10 29 23 21  3 31 18 17  9 15 14       0.000000026
  -3497555.098 9  -2710910.81648  21279487.273    21279487.0784   21279494.6614
        -0.000          -0.000
    645162.086 9    501795.19847  22606413.027    22606412.3364   22606419.2614
        -0.000          -0.000
  -1260517.302 9   -579016.45048  21429830.049    21429829.4184   21429835.7934
        -0.000          -0.000
  -1496081.467 9   -817895.35148  21575480.758    21575480.3564   21575487.3904
        -0.000          -0.000
  -3322633.048 9  -2577037.68646  23445839.253    23445838.6634   23445846.9284
        -0.000          -0.000
    586101.997 9    456514.53448  21759122.479    21759121.9234   21759126.9064
        -0.000          -0.000
    625061.401 9    487254.09847  21965563.745    21965563.1174   21965571.6074
        -0.000          -0.000
  -1247898.508 9   -964135.22346  23701136.518    23701136.1944   23701144.0044
        -0.000          -0.000
   -130894.472 9    -96516.17848  20944248.383    20944247.5994   20944254.5464
        -0.000          -0.000
  -3306744.956 9  -2555493.27148  20936636.641    20936636.0794   20936642.4464
        -0.000          -0.000
 01  5 16 23 36  0.0000000  0 10 29 23 21  3 31 18 17  9 15 14       0.000000027
  -3565357.442 9  -2763743.68248  21266584.816    21266584.6104   21266592.1754
        -0.000          -0.000
    695344.934 9    540898.70047  22615962.577    22615961.8454   22615968.7284
        -0.000          -0.000
  -1266032.840 9   -583314.22848  21428780.489    21428779.8744   21428786.2144
        -0.000          -0.000
  -1501346.407 9   -821997.88748  21574478.886    21574478.4894   21574485.5864
        -0.000          -0.000
  -3385396.646 9  -2625944.37046  23433895.899    23433895.3714   23433903.4154
        -0.000          -0.000
    635971.724 9    495374.05248  21768612.359    21768611.7744   21768616.9814
        -0.000          -0.000
    680364.861 9    530347.63247  21976087.668    21976087.0414   21976095.5734
        -0.000          -0.000
  -1245574.506 9   -962324.24846  23701578.737    23701578.3494   23701586.0184
        -0.000          -0.000
    -98415.830 9    -71208.15548  20950428.939    20950428.1304   20950435.0584
        -0.000          -0.000
  -3368178.770 9  -2603363.67548  20924946.096    20924945.5524   20924951.8934
        -0.000          -0.000
 01  5 16 23 36 30.0000000  0 10 29 23 21  3 31 18 17  9 15 14       0.000000028
  -3632747.496 9  -2816255.28848  21253760.791    21253760.6084   21253768.1704
        -0.000          -0.000
    745524.257 9    579999.43747  22625511.258    22625510.6054   22625517.6094
        -0.000          -0.000
  -1271449.689 9   -587535.10548  21427749.713    21427749.0584   21427755.3814
        -0.000          -0.000
  -1506051.535 9   -825664.21148  21573583.498    21573583.1194   21573590.1694
        -0.000          -0.000
  -3447707.781 9  -2674498.41446  23422038.464    23422037.8714   23422045.8954
        -0.000          -0.000
    685919.555 9    534294.43648  21778117.000    21778116.4844   21778121.6974
        -0.000          -0.000
    736009.076 9    573706.69647  21986676.523    21986675.8714   21986684.3704
        -0.000          -0.000
  -1242726.376 9   -960104.81146  23702120.670    23702120.3644   23702127.9484
        -0.000          -0.000
    -65575.779 9    -45618.51848  20956678.237    20956677.4344   20956684.3374
        -0.000          -0.000
  -3429136.732 9  -2650863.28648  20913346.119    20913345.5824   20913351.8994
        -0.000          -0.000
 01  5 16 23 37  0.0000000  0 10 29 23 21  3 31 18 17  9 15 14       0.000000027
  -3699722.891 9  -2868443.78448  21241015.724    21241015.5314   21241023.0744
        -0.000          -0.000
    795700.176 9    619097.53947  22635059.578    22635058.9244   22635065.8104
        -0.000          -0.000
  -1276768.164 9   -591679.33348  21426737.606    21426736.9494   21426743.2934
        -0.000          -0.000
  -1510196.441 9   -828893.99548  21572794.713    21572794.3264   21572801.3774
        -0.000          -0.000
  -3509563.976 9  -2722698.03346  23410267.590    23410267.0894   23410274.9094
        -0.000          -0.000
    735945.319 9    573275.54948  21787636.663    21787636.1044   21787641.3894
        -0.000          -0.000
    791994.794 9    617331.86247  21997330.310    21997329.6554   21997338.2204
        -0.000          -0.000
  -1239352.498 9   -957475.73146  23702762.096    23702761.8804   23702770.1314
        -0.000          -0.000
    -32373.201 9    -19746.39048  20962996.523    20962995.7004   20963002.5674
        -0.000          -0.000
  -3489616.674 9  -2697990.41348  20901837.124    20901836.5804   20901842.8604
        -0.000          -0.000
 01  5 16 23 37 30.0000000  0 10 29 23 21  3 31 18 17  9 15 14       0.000000028
  -3766283.272 9  -2920308.89648  21228349.617    21228349.4204   21228356.9354
        -0.000          -0.000
    845871.417 9    658191.99047  22644606.824    22644606.1354   22644613.0584
        -0.000          -0.000
  -1281989.570 9   -595747.92348  21425743.911    21425743.2974   21425749.6494
        -0.000          -0.000
  -1513782.394 9   -831688.22848  21572112.381    21572111.9984   21572119.0494
        -0.000          -0.000
  -3570964.335 9  -2770542.46146  23398583.698    23398583.1094   23398590.7854
        -0.000          -0.000
    786047.181 9    612315.95148  21797170.718    21797170.2034   21797175.6634
        -0.000          -0.000
    848321.370 9    661222.63247  22008048.977    22008048.3454   22008056.8834
        -0.000          -0.000
  -1235452.731 9   -954436.87046  23703503.822    23703503.6964   23703512.6874
        -0.000          -0.000
      1191.622 9      6408.00248  20969383.723    20969382.8884   20969389.7574
        -0.000          -0.000
  -3549618.062 9  -2744744.63848  20890419.182    20890418.6444   20890424.9064
        -0.000          -0.000
 01  5 16 23 38  0.0000000  0 10 29 23 21  3 31 18 17  9 15 14       0.000000027
  -3832427.055 9  -2971849.38348  21215762.797    21215762.6034   21215770.0804
        -0.000          -0.000
    896037.708 9    697282.56947  22654153.184    22654152.5264   22654159.4574
        -0.000          -0.000
  -1287114.500 9   -599741.34148  21424768.664    21424768.0424   21424774.4124
        -0.000          -0.000
  -1516809.343 9   -834046.87548  21571536.385    21571535.9964   21571543.0014
        -0.000          -0.000
  -3631906.927 9  -2818030.07546  23386986.377    23386985.9274   23386993.8564
        -0.000          -0.000
    836224.597 9    651415.23548  21806719.190    21806718.6234   21806724.0154
        -0.000          -0.000
    904988.945 9    705379.12347  22018832.500    22018831.9104   22018840.4394
        -0.000          -0.000
  -1231026.455 9   -950987.73646  23704345.579    23704345.5944   23704355.2894
        -0.000          -0.000
     35119.253 9     32845.10148  20975839.899    20975839.0894   20975845.9854
        -0.000          -0.000
  -3609139.476 9  -2791124.86248  20879092.567    20879092.0354   20879098.2644
        -0.000          -0.000
 01  5 16 23 38 30.0000000  0 10 29 23 21  3 31 18 17  9 15 14       0.000000027
  -3898151.436 9  -3023063.06748  21203255.789    21203255.6024   21203263.0514
        -0.000          -0.000
    946200.123 9    736370.14747  22663698.886    22663698.2184   22663705.1104
        -0.000          -0.000
  -1292141.964 9   -603658.81148  21423811.937    21423811.3544   21423817.7424
        -0.000          -0.000
  -1519276.040 9   -835968.96148  21571066.965    21571066.5614   21571073.5664
        -0.000          -0.000
  -3692388.304 9  -2865158.41946  23375477.182    23375476.7644   23375484.5124
        -0.000          -0.000
    886478.235 9    690573.91348  21816282.164    21816281.6224   21816286.9374
        -0.000          -0.000
    961999.051 9    749802.52247  22029681.202    22029680.6094   22029689.2154
        -0.000          -0.000
  -1226071.306 9   -947126.52446  23705288.078    23705288.1514   23705298.6024
        -0.000          -0.000
     69411.742 9     59566.50748  20982365.555    20982364.7714   20982371.6774
        -0.000          -0.000
  -3668178.146 9  -2837128.92248  20867857.806    20867857.2634   20867863.4484
        -0.000          -0.000
 01  5 16 23 39  0.0000000  0 10 29 23 21  3 31 18 17  9 15 14       0.000000029
  -3963457.359 9  -3073950.68348  21190828.405    21190828.2054   21190835.6324
        -0.000          -0.000
    996356.174 9    775452.77147  22673243.332    22673242.6414   22673249.4584
        -0.000          -0.000
  -1297074.942 9   -607502.65948  21422873.233    21422872.6044   21422878.9774
        -0.000          -0.000
  -1521185.178 9   -837456.58748  21570703.681    21570703.2634   21570710.3374
        -0.000          -0.000
  -3752408.911 9  -2911927.70546  23364055.751    23364055.2314   23364062.9154
        -0.000          -0.000
    936804.983 9    729789.54948  21825859.130    21825858.5734   21825863.8124
        -0.000          -0.000
   1019349.556 9    794491.15947  22040594.708    22040594.0744   22040602.6614
        -0.000          -0.000
  -1220588.740 9   -942854.35546  23706331.557    23706331.6374   23706342.0054
        -0.000          -0.000
    104067.477 9     86570.96148  20988960.334    20988959.5664   20988966.4234
        -0.000          -0.000
  -3726734.921 9  -2882757.47948  20856714.765    20856714.2174   20856720.3694
        -0.000          -0.000
 01  5 16 23 39 30.0000000  0 10 29 23 21  3 31 18 17  9 15 14       0.000000031
  -4028343.099 9  -3124510.88148  21178480.997    21178480.7834   21178488.1974
        -0.000          -0.000
   1046505.816 9    814530.38247  22682786.395    22682785.7744   22682792.6514
        -0.000          -0.000
  -1301913.883 9   -611273.22948  21421952.397    21421951.7914   21421958.0994
        -0.000          -0.000
  -1522536.538 9   -838509.58548  21570446.545    21570446.1614   21570453.2084
        -0.000          -0.000
  -3811966.709 9  -2958336.26846  23352722.085    23352721.5374   23352729.5344
        -0.000          -0.000
    987204.595 9    769061.97048  21835449.812    21835449.2734   21835454.5054
        -0.000          -0.000
   1077040.937 9    839445.40947  22051572.997    22051572.4444   22051581.0704
        -0.000          -0.000
  -1214577.565 9   -938170.21946  23707476.101    23707476.0644   23707485.4284
        -0.000          -0.000
    139087.220 9    113859.05848  20995624.448    20995623.6524   20995630.4924
        -0.000          -0.000
  -3784808.077 9  -2928009.19248  20845663.719    20845663.1884   20845669.3084
        -0.000          -0.000
 01  5 16 23 40  0.0000000  0 10 29 23 21  3 31 18 17  9 15 14       0.000000033
  -4092807.805 9  -3174743.00448  21166213.699    21166213.4864   21166220.8514
        -0.000          -0.000
   1096648.294 9    853602.42547  22692328.212    22692327.5694   22692334.6084
        -0.000          -0.000
  -1306659.949 9   -614971.43448  21421049.223    21421048.6274   21421054.9124
        -0.000          -0.000
  -1523331.219 9   -839128.81248  21570295.325    21570294.9364   21570301.9644
        -0.000          -0.000
  -3871060.362 9  -3004383.26946  23341477.157    23341476.5924   23341484.3654
        -0.000          -0.000
   1037676.191 9    808390.47148  21845054.223    21845053.6744   21845058.9504
        -0.000          -0.000
   1135072.798 9    884664.97347  22062616.211    22062615.6194   22062624.2334
        -0.000          -0.000
  -1208037.472 9   -933073.90946  23708721.181    23708720.9644   23708729.5784
        -0.000          -0.000
    174471.193 9    141430.97048  21002357.838    21002357.0414   21002363.8984
        -0.000          -0.000
  -3842396.754 9  -2972883.38948  20834704.884    20834704.3254   20834710.4544
        -0.000          -0.000
 01  5 16 23 40 30.0000000  0 10 29 23 21  3 31 18 17  9 15 14       0.000000032
  -4156848.988 9  -3224645.11248  21154027.028    21154026.7724   21154034.1314
        -0.000          -0.000
   1146784.363 9    892669.47347  22701868.804    22701868.1344   22701875.1534
        -0.000          -0.000
  -1311312.886 9   -618597.06848  21420163.796    21420163.1704   21420169.4094
        -0.000          -0.000
  -1523568.117 9   -839313.40448  21570250.221    21570249.8474   21570256.8764
        -0.000          -0.000
  -3929686.732 9  -3050066.11846  23330320.723    23330320.1664   23330327.7954
        -0.000          -0.000
   1088219.921 9    847775.17148  21854672.291    21854671.7564   21854677.1864
        -0.000          -0.000
   1193446.299 9    930150.74747  22073724.380    22073723.8094   22073732.4224
        -0.000          -0.000
  -1200966.724 9   -927564.14946  23710066.596    23710066.3844   23710075.0094
        -0.000          -0.000
    210221.152 9    169288.06248  21009160.842    21009160.0314   21009166.8904
        -0.000          -0.000
  -3899498.896 9  -3017378.46948  20823838.619    20823838.0774   20823844.1784
        -0.000          -0.000
 01  5 16 23 41  0.0000000  0 10 29 23 21  3 31 18 17  9 15 14       0.000000032
  -4220464.699 9  -3274215.68048  21141921.276    21141921.0234   21141928.3524
        -0.000          -0.000
   1196914.438 9    931731.85047  22711408.225    22711407.5704   22711414.6254
        -0.000          -0.000
  -1315872.315 9   -622149.83748  21419296.129    21419295.5204   21419301.7614
        -0.000          -0.000
  -1523247.178 9   -839063.32248  21570311.319    21570310.9344   21570317.9224
        -0.000          -0.000
  -3987843.516 9  -3095383.03146  23319253.715    23319253.2064   23319261.0534
        -0.000          -0.000
   1138835.674 9    887215.99448  21864304.161    21864303.6874   21864309.0154
        -0.000          -0.000
   1252162.164 9    975903.29547  22084897.799    22084897.1144   22084905.7364
        -0.000          -0.000
  -1193363.852 8   -921639.77546  23711513.241    23711512.8934   23711522.0314
        -0.000          -0.000
    246338.069 9    197431.08948  21016033.669    21016032.8634   21016039.7154
        -0.000          -0.000
  -3956112.210 9  -3061492.64648  20813065.408    20813064.8654   20813070.9394
        -0.000          -0.000
 01  5 16 23 41 30.0000000  0 10 29 23 21  3 31 18 17  9 15 14       0.000000032
  -4283654.686 9  -3323454.52248  21129896.558    21129896.3174   21129903.5844
        -0.000          -0.000
   1247037.141 9    970788.48347  22720946.250    22720945.5864   22720952.7054
        -0.000          -0.000
  -1320340.042 9   -625631.15948  21418445.907    21418445.2994   21418451.5794
        -0.000          -0.000
  -1522369.465 9   -838379.38748  21570478.306    21570477.9194   21570484.9564
        -0.000          -0.000
  -4045529.867 9  -3140333.40746  23308276.529    23308275.9374   23308283.6664
        -0.000          -0.000
   1189521.781 9    926711.65048  21873949.623    21873949.0604   21873954.3234
        -0.000          -0.000
   1311219.462 9   1021921.88047  22096136.081    22096135.4244   22096144.1114
        -0.000          -0.000
  -1185229.157 9   -915300.99046  23713061.100    23713060.8904   23713070.2974
        -0.000          -0.000
    282821.547 9    225859.74848  21022976.290    21022975.4674   21022982.3054
        -0.000          -0.000
  -4012236.538 9  -3105225.79748  20802385.260    20802384.7094   20802390.7564
        -0.000          -0.000
 01  5 16 23 42  0.0000000  0 10 29 23 21  3 31 18 17  9 15 14       0.000000032
  -4346417.684 9  -3372360.64348  21117953.059    21117952.8564   21117960.0814
        -0.000          -0.000
   1297152.203 9   1009839.17147  22730482.946    22730482.3144   22730489.3234
        -0.000          -0.000
  -1324716.248 9   -629041.15948  21417613.162    21417612.5554   21417618.7744
        -0.000          -0.000
  -1520935.400 9   -837261.93348  21570751.213    21570750.8204   21570757.8804
        -0.000          -0.000
  -4102744.036 9  -3184915.85146  23297388.934    23297388.3144   23297396.0184
        -0.000          -0.000
   1240277.708 9    966261.69948  21883608.129    21883607.6334   21883612.8294
        -0.000          -0.000
   1370618.258 9   1068206.57947  22107439.287    22107438.7084   22107447.3484
        -0.000          -0.000
  -1176561.917 9   -908547.26546  23714710.545    23714710.2764   23714719.7884
        -0.000          -0.000
    319671.919 9    254574.30948  21029988.681    21029987.8624   21029994.7124
        -0.000          -0.000
  -4067870.566 9  -3148576.89548  20791798.384    20791797.8484   20791803.8544
        -0.000          -0.000
 01  5 16 23 42 30.0000000  0 10 29 23 21  3 31 18 17  9 15 14       0.000000034
  -4408752.634 9  -3420933.21748  21106091.062    21106090.8484   21106098.0244
        -0.000          -0.000
   1347258.947 9   1048883.37647  22740018.026    22740017.3734   22740024.3434
        -0.000          -0.000
  -1329002.106 9   -632380.75748  21416797.543    21416796.9504   21416803.1624
        -0.000          -0.000
  -1518946.219 9   -835711.93148  21571129.776    21571129.3984   21571136.3944
        -0.000          -0.000
  -4159484.880 9  -3229129.45546  23286591.617    23286590.9684   23286598.6604
        -0.000          -0.000
   1291102.308 9   1005865.27848  21893279.944    21893279.3384   21893284.4074
        -0.000          -0.000
   1430358.150 9   1114757.06747  22118807.540    22118806.9884   22118815.5834
        -0.000          -0.000
  -1167362.261 9   -901378.63746  23716461.649    23716461.2554   23716470.2674
        -0.000          -0.000
    356889.293 9    283574.83948  21037070.913    21037070.1494   21037076.9914
        -0.000          -0.000
  -4123013.784 9  -3191545.54448  20781304.941    20781304.3824   20781310.3604
        -0.000          -0.000
 01  5 16 23 43  0.0000000  0 10 29 23 21  3 31 18 17  9 15 14       0.000000033
  -4470657.878 9  -3469170.95848  21094310.799    21094310.5834   21094317.7144
        -0.000          -0.000
   1397357.664 9   1087921.31347  22749551.469    22749550.8634   22749557.9674
        -0.000          -0.000
  -1333197.841 9   -635650.13148  21415999.133    21415998.5434   21416004.7144
        -0.000          -0.000
  -1516401.629 9   -833729.13548  21571614.012    21571613.6334   21571620.6204
        -0.000          -0.000
  -4215749.967 9  -3272972.27446  23275884.631    23275884.0414   23275891.9334
        -0.000          -0.000
   1341995.647 9   1045522.39648  21902964.438    21902963.9534   21902969.0914
        -0.000          -0.000
   1490439.646 9   1161573.72847  22130240.843    22130240.2134   22130248.7764
        -0.000          -0.000
  -1157628.903 9   -893794.10046  23718313.642    23718313.2754   23718322.1734
        -0.000          -0.000
    394474.756 9    312862.19148  21044223.197    21044222.4184   21044229.3304
        -0.000          -0.000
  -4177664.257 9  -3234130.23748  20770905.250    20770904.6824   20770910.6304
        -0.000          -0.000
 01  5 16 23 43 30.0000000  0 10 29 23 21  3 31 18 17  9 15 14       0.000000032
  -4532131.248 9  -3517072.17548  21082612.726    21082612.5114   21082619.6284
        -0.000          -0.000
   1447449.186 9   1126953.64447  22759083.692    22759083.0644   22759090.0754
        -0.000          -0.000
  -1337302.507 9   -638848.54548  21415218.035    21415217.4144   21415223.5824
        -0.000          -0.000
  -1513301.194 9   -831313.22448  21572204.033    21572203.6344   21572210.6174
        -0.000          -0.000
  -4271536.455 9  -3316442.27946  23265268.852    23265268.2494   23265275.9074
        -0.000          -0.000
   1392957.825 9   1085233.17748  21912662.435    21912661.8604   21912666.8274
        -0.000          -0.000
   1550863.745 9   1208657.35447  22141739.204    22141738.5434   22141747.2074
        -0.000          -0.000
  -1147359.943 9   -885792.24746  23720267.161    23720266.8324   23720276.0424
        -0.000          -0.000
    432429.570 9    342437.34548  21051445.809    21051445.0184   21051451.9084
        -0.000          -0.000
  -4231819.710 9  -3276329.20448  20760599.733    20760599.1864   20760605.0864
        -0.000          -0.000
 01  5 16 23 44  0.0000000  0 10 29 23 21  3 31 18 17  9 15 14       0.000000032
  -4593172.003 9  -3564636.29148  21070996.992    21070996.7734   21071003.8584
        -0.000          -0.000
   1497532.459 9   1165979.55447  22768614.242    22768613.5974   22768620.5614
        -0.000          -0.000
  -1341317.621 9   -641977.17648  21414453.928    21414453.3334   21414459.4954
        -0.000          -0.000
  -1509646.046 9   -828465.06148  21572899.588    21572899.1934   21572906.1364
        -0.000          -0.000
  -4326843.406 9  -3359538.57646  23254744.183    23254743.5774   23254751.1264
        -0.000          -0.000
   1443987.788 9   1124996.76648  21922372.959    21922372.4574   21922377.6004
        -0.000          -0.000
   1611629.815 9   1256007.46247  22153302.580    22153302.0194   22153310.7034
        -0.000          -0.000
  -1136555.422 9   -877373.12046  23722322.797    23722322.5384   23722331.9784
        -0.000          -0.000
    470753.569 9    372300.17548  21058738.664    21058737.8594   21058744.7594
        -0.000          -0.000
  -4285479.755 9  -3318142.13948  20750388.509    20750387.9454   20750393.8354
        -0.000          -0.000
 01  5 16 23 44 30.0000000  0 10 29 23 21  3 31 18 17  9 15 14       0.000000034
  -4653779.842 9  -3611863.06748  21059463.660    21059463.4474   21059470.4924
        -0.000          -0.000
   1547606.555 9   1204998.32047  22778143.012    22778142.3114   22778149.2524
        -0.000          -0.000
  -1345244.748 9   -645037.25048  21413706.603    21413706.0104   21413712.1584
        -0.000          -0.000
  -1505437.218 9   -825185.46348  21573700.527    21573700.1384   21573707.0804
        -0.000          -0.000
  -4381669.957 9  -3402260.46446  23244310.876    23244310.3784   23244318.2364
        -0.000          -0.000
   1495083.989 9   1164811.97848  21932096.451    21932095.8764   21932100.8984
        -0.000          -0.000
   1672737.174 9   1303623.49447  22164931.043    22164930.4084   22164939.1994
        -0.000          -0.000
  -1125215.782 9   -868536.98046  23724480.971    23724480.5844   23724489.7614
        -0.000          -0.000
    509446.666 9    402450.61648  21066101.723    21066100.9124   21066107.8424
        -0.000          -0.000
  -4338643.958 9  -3359568.70448  20740271.666    20740271.1194   20740276.9674
        -0.000          -0.000
 01  5 16 23 45  0.0000000  0 10 29 23 21  3 31 18 17  9 15 14       0.000000034
  -4713954.558 9  -3658752.35048  21048012.693    21048012.4844   21048019.5004
        -0.000          -0.000
   1597670.285 9   1244009.00247  22787669.609    22787668.9954   22787676.0514
        -0.000          -0.000
  -1349085.079 9   -648029.68948  21412975.792    21412975.1664   21412981.3224
        -0.000          -0.000
  -1500676.279 9   -821475.64548  21574606.498    21574606.0714   21574613.0504
        -0.000          -0.000
  -4436015.468 9  -3444607.61146  23233969.453    23233968.8984   23233976.5914
        -0.000          -0.000
   1546244.904 9   1204677.59448  21941831.893    21941831.3664   21941836.4144
        -0.000          -0.000
   1734184.685 9   1351504.58047  22176624.135    22176623.5334   22176632.3474
        -0.000          -0.000
  -1113341.690 9   -859284.36646  23726740.537    23726740.1794   23726748.9764
        -0.000          -0.000
    548508.196 9    432888.13548  21073534.874    21073534.0964   21073541.0134
        -0.000          -0.000
  -4391312.298 9  -3400608.88649  20730249.173    20730248.6084   20730254.4384
        -0.000          -0.000
 01  5 16 23 45 30.0000000  0 10 29 23 21  3 31 18 17  9 15 14       0.000000034
  -4773693.577 9  -3705302.12748  21036644.646    21036644.4444   21036651.4144
        -0.000          -0.000
   1647724.969 9   1283012.65047  22797194.868    22797194.2404   22797201.2754
        -0.000          -0.000
  -1352838.011 9   -650954.02748  21412261.552    21412260.9504   21412267.1524
        -0.000          -0.000
  -1495362.606 9   -817335.13048  21575617.650    21575617.2614   21575624.2534
        -0.000          -0.000
  -4489876.978 9  -3486577.60346  23223720.019    23223719.3544   23223726.8184
        -0.000          -0.000
   1597471.383 9   1244594.33648  21951580.196    21951579.6374   21951584.5194
        -0.000          -0.000
   1795973.767 9   1399651.82247  22188382.297    22188381.7134   22188390.5564
        -0.000          -0.000
  -1100930.756 9   -849613.44646  23729102.078    23729101.6754   23729110.3034
        -0.000          -0.000
    587940.054 9    463614.22648  21081038.594    21081037.8014   21081044.6914
        -0.000          -0.000
  -4443482.316 9  -3441260.76249  20720321.464    20720320.9204   20720326.7344
        -0.000          -0.000
 01  5 16 23 46  0.0000000  0 10 29 23 21  3 31 18 17  9 15 14       0.000000034
  -4832996.039 9  -3751511.73148  21025359.682    21025359.4874   21025366.4334
        -0.000          -0.000
   1697770.014 9   1322008.76847  22806718.244    22806717.4994   22806724.6814
        -0.000          -0.000
  -1356504.283 9   -653810.83848  21411563.874    21411563.2834   21411569.4534
        -0.000          -0.000
  -1489497.123 9   -812764.63948  21576733.848    21576733.4684   21576740.4264
        -0.000          -0.000
  -4543253.207 9  -3528169.39646  23213562.750    23213562.1454   23213569.7504
        -0.000          -0.000
   1648762.559 9   1284561.46548  21961340.609    21961339.9814   21961344.9944
        -0.000          -0.000
   1858103.930 9   1448064.84447  22200205.474    22200204.7674   22200213.6074
        -0.000          -0.000
  -1087982.961 9   -839524.20446  23731565.745    23731565.4504   23731574.0834
        -0.000          -0.000
    627742.113 9    494628.77348  21088612.750    21088611.8984   21088618.7804
        -0.000          -0.000
  -4495153.088 9  -3481523.62149  20710488.784    20710488.2374   20710494.0314
        -0.000          -0.000
 01  5 16 23 46 30.0000000  0 10 29 23 21  3 31 18 17  9 15 14       0.000000035
  -4891861.423 9  -3797380.75648  21014157.929    21014157.7224   21014164.6314
        -0.000          -0.000
   1747804.458 9   1360996.62447  22816239.246    22816238.6474   22816245.9034
        -0.000          -0.000
  -1360085.215 9   -656601.14748  21410882.466    21410881.8754   21410887.9684
        -0.000          -0.000
  -1483081.089 9   -807765.13548  21577954.780    21577954.3834   21577961.3484
        -0.000          -0.000
  -4596142.910 9  -3569382.08846  23203498.221    23203497.5834   23203505.2224
        -0.000          -0.000
   1700116.932 9   1324577.84048  21971112.873    21971112.3854   21971117.3644
        -0.000          -0.000
   1920574.441 9   1496743.08647  22212093.279    22212092.5384   22212101.3854
        -0.000          -0.000
  -1074498.728 8   -829016.98345  23734131.608    23734131.2824   23734140.1134
        -0.000          -0.000
    667913.929 9    525931.45448  21096257.205    21096256.3854   21096263.2594
        -0.000          -0.000
  -4546324.353 9  -3521397.24849  20700751.149    20700750.5994   20700756.3814
        -0.000          -0.000
 01  5 16 23 47  0.0000000  0 10 29 23 21  3 31 18 17  9 15 14       0.000000035
  -4950287.740 9  -3842907.65248  21003039.680    21003039.4894   21003046.3724
        -0.000          -0.000
   1797829.196 9   1399976.91647  22825758.667    22825758.0974   22825765.3924
        -0.000          -0.000
  -1363579.941 9   -659324.28448  21410217.509    21410216.8754   21410222.9034
        -0.000          -0.000
  -1476113.921 9   -802336.18848  21579280.595    21579280.2154   21579287.1464
        -0.000          -0.000
  -4648543.628 9  -3610213.80546  23193526.636    23193525.9764   23193533.4764
        -0.000          -0.000
   1751535.127 9   1364643.95848  21980897.670    21980897.0724   21980901.9754
        -0.000          -0.000
   1983386.565 9   1545687.51347  22224046.058    22224045.3734   22224054.2444
        -0.000          -0.000
  -1060476.499 9   -818090.48646  23736799.992    23736799.8254   23736808.4054
        -0.000          -0.000
    708457.230 9    557523.60048  21103972.362    21103971.5344   21103978.4524
        -0.000          -0.000
  -4596993.855 9  -3560879.89349  20691108.970    20691108.4444   20691114.2134
        -0.000          -0.000
 01  5 16 23 47 30.0000000  0 10 29 23 21  3 31 18 17  9 15 14       0.000000037
  -5008274.478 9  -3888092.02048  20992005.159    20992004.9284   20992011.7774
        -0.000          -0.000
   1847843.298 9   1438948.93847  22835276.081    22835275.4484   22835282.7124
        -0.000          -0.000
  -1366989.877 9   -661981.35548  21409568.659    21409568.0244   21409574.0544
        -0.000          -0.000
  -1468597.219 9   -796479.03248  21580711.011    21580710.6154   21580717.5064
        -0.000          -0.000
  -4700454.448 9  -3650663.74546  23183648.227    23183647.5954   23183655.2324
        -0.000          -0.000
   1803015.766 9   1404758.70947  21990694.024    21990693.4404   21990698.4574
        -0.000          -0.000
   2046539.157 9   1594897.22847  22236063.696    22236062.9744   22236071.8434
        -0.000          -0.000
  -1045916.782 9   -806745.16846  23739571.125    23739570.8074   23739579.1294
        -0.000          -0.000
    749371.345 9    589404.68948  21111758.115    21111757.2944   21111764.1824
        -0.000          -0.000
  -4647161.577 9  -3599971.54349  20681562.322    20681561.8034   20681567.5564
        -0.000          -0.000
 01  5 16 23 48  0.0000000  0 10 29 23 21  3 31 18 17  9 15 14       0.000000037
  -5065820.933 9  -3932933.31148  20981054.338    20981054.1294   20981060.9454
        -0.000          -0.000
   1897846.135 9   1477912.16547  22844791.262    22844790.6114   22844797.8244
        -0.000          -0.000
  -1370316.036 9   -664573.14248  21408935.728    21408935.0934   21408941.1274
        -0.000          -0.000
  -1460532.059 9   -790194.50748  21582245.771    21582245.3824   21582252.3024
        -0.000          -0.000
  -4751874.424 9  -3690731.21146  23173863.254    23173862.6094   23173870.3284
        -0.000          -0.000
   1854557.954 9   1444921.45247  22000502.094    22000501.5104   22000506.6564
        -0.000          -0.000
   2110031.797 9   1644371.92747  22248146.037    22248145.3104   22248154.1514
        -0.000          -0.000
  -1030819.240 9   -794980.78046  23742444.083    23742443.7794   23742452.0024
        -0.000          -0.000
    790656.416 9    621574.83848  21119614.431    21119613.6064   21119620.4804
        -0.000          -0.000
  -4696826.790 9  -3638671.62549  20672111.315    20672110.7764   20672116.5084
        -0.000          -0.000
 01  5 16 23 48 30.0000000  0 10 29 23 21  3 31 18 17  9 15 14       0.000000036
  -5122925.436 9  -3977430.23048  20970187.640    20970187.4314   20970194.2264
        -0.000          -0.000
   1947838.324 9   1516867.10347  22854304.496    22854303.8854   22854310.9014
        -0.000          -0.000
  -1373558.437 9   -667099.66248  21408318.721    21408318.0904   21408324.1214
        -0.000          -0.000
  -1451918.626 9   -783482.75548  21583884.832    21583884.4584   21583891.4134
        -0.000          -0.000
  -4802801.426 9  -3730414.58446  23164172.305    23164171.5784   23164179.0784
        -0.000          -0.000
   1906161.908 9   1485132.30347  22010321.804    22010321.2724   22010326.6074
        -0.000          -0.000
   2173864.933 9   1694111.94447  22260293.092    22260292.4304   22260301.2604
        -0.000          -0.000
  -1015183.050 9   -782796.70446  23745418.958    23745418.7394   23745427.4984
        -0.000          -0.000
    832313.539 9    654034.90948  21127541.555    21127540.7184   21127547.6084
        -0.000          -0.000
  -4745987.754 9  -3676978.78849  20662756.212    20662755.6824   20662761.4034
        -0.000          -0.000
 01  5 16 23 49  0.0000000  0 10 29 23 21  3 31 18 17  9 15 14       0.000000036
  -5179587.174 9  -4021582.13548  20959405.202    20959404.9964   20959411.7514
        -0.000          -0.000
   1997819.289 9   1555813.29047  22863815.751    22863815.0504   22863822.0344
        -0.000          -0.000
  -1376717.310 9   -669561.09348  21407717.540    21407716.8864   21407722.9634
        -0.000          -0.000
  -1442757.742 9   -776344.42448  21585628.146    21585627.7514   21585634.6114
        -0.000          -0.000
  -4853234.276 9  -3769712.84146  23154575.163    23154574.4814   23154582.0984
        -0.000          -0.000
   1957826.686 9   1525390.54247  22020153.322    22020152.8554   22020158.1564
        -0.000          -0.000
   2238038.235 9   1744117.02247  22272504.878    22272504.2064   22272513.0914
        -0.000          -0.000
   -999008.069 9   -770192.78345  23748496.761    23748496.4294   23748505.4524
        -0.000          -0.000
    874342.764 9    686784.92548  21135539.429    21135538.6014   21135545.5154
        -0.000          -0.000
  -4794643.889 9  -3714892.57549  20653497.214    20653496.6824   20653502.3784
        -0.000          -0.000
 01  5 16 23 49 30.0000000  0 10 29 23 21  3 31 18 17  9 15 14       0.000000038
  -5235804.632 9  -4065387.84848  20948707.305    20948707.1124   20948713.8204
        -0.000          -0.000
   2047789.722 9   1594751.25547  22873324.793    22873324.0974   22873331.2544
        -0.000          -0.000
  -1379792.404 9   -671957.24448  21407132.334    21407131.6814   21407137.8214
        -0.000          -0.000
  -1433049.637 9   -768779.68648  21587475.545    21587475.1424   21587482.0054
        -0.000          -0.000
  -4903170.523 9  -3808624.15446  23145072.743    23145072.0704   23145079.6164
        -0.000          -0.000
   2009552.624 9   1565696.46147  22029996.722    22029996.1514   22030001.2714
        -0.000          -0.000
   2302552.151 9   1794387.51147  22284781.572    22284780.8574   22284789.8454
        -0.000          -0.000
   -982293.356 9   -757168.22146  23751677.826    23751677.4854   23751685.7514
        -0.000          -0.000
    916745.142 9    719825.71548  21143608.383    21143607.5454   21143614.4564
        -0.000          -0.000
  -4842793.419 9  -3752411.60649  20644334.644    20644334.0954   20644339.7484
        -0.000          -0.000
 01  5 16 23 50  0.0000000  0 10 29 23 21  3 31 18 17  9 15 14       0.000000038
  -5291579.058 9  -4108848.34448  20938093.699    20938093.5004   20938100.1684
        -0.000          -0.000
   2097747.064 9   1633679.01547  22882831.131    22882830.4774   22882837.9354
        -0.000          -0.000
  -1382786.789 9   -674290.50448  21406562.459    21406561.8364   21406568.0164
        -0.000          -0.000
  -1422797.243 9   -760790.82648  21589426.536    21589426.1414   21589433.0014
        -0.000          -0.000
  -4952611.067 9  -3847149.23646  23135664.385    23135663.7444   23135671.2284
        -0.000          -0.000
   2061336.656 9   1606047.62747  22039850.798    22039850.2494   22039855.4914
        -0.000          -0.000
   2367404.349 9   1844921.60047  22297122.627    22297121.9144   22297130.8484
        -0.000          -0.000
   -965041.208 9   -743724.90946  23754960.935    23754960.4544   23754968.5774
        -0.000          -0.000
    959518.745 9    753155.77548  21151748.006    21151747.1304   21151754.0404
        -0.000          -0.000
  -4890438.071 9  -3789537.22649  20635268.102    20635267.5624   20635273.1764
        -0.000          -0.000
 01  5 16 23 50 30.0000000  0 10 29 23 21  3 31 18 17  9 15 14       0.000000037
  -5346907.156 9  -4151961.05048  20927565.042    20927564.8484   20927571.5184
        -0.000          -0.000
   2147693.450 9   1672598.25547  22892335.465    22892334.9064   22892342.3344
        -0.000          -0.000
  -1385698.494 9   -676559.33648  21406008.352    21406007.7494   21406013.9514
        -0.000          -0.000
  -1411999.491 9   -752377.01048  21591481.323    21591480.9094   21591487.7794
        -0.000          -0.000
  -5001552.461 9  -3885285.34746  23126351.164    23126350.5814   23126357.9724
        -0.000          -0.000
   2113180.432 9   1646445.35747  22049716.295    22049715.7794   22049721.0674
        -0.000          -0.000
   2432596.654 9   1895720.70247  22309528.214    22309527.6454   22309536.7024
        -0.000          -0.000
   -947249.186 9   -729860.96346  23758346.573    23758346.1204   23758354.4524
        -0.000          -0.000
   1002665.801 9    786776.84348  21159958.631    21159957.7764   21159964.6974
        -0.000          -0.000
  -4937574.753 9  -3826267.02349  20626298.253    20626297.7114   20626303.3014
        -0.000          -0.000
 01  5 16 23 51  0.0000000  0 10 29 23 21  3 31 18 17  9 15 14       0.000000036
  -5401787.954 9  -4194725.20948  20917121.497    20917121.2984   20917127.9644
        -0.000          -0.000
   2197629.038 9   1711509.09247  22901838.295    22901837.6474   22901844.7544
        -0.000          -0.000
  -1388528.025 9   -678764.13648  21405469.911    21405469.2924   21405475.4704
        -0.000          -0.000
  -1400656.917 9   -743538.65448  21593639.774    21593639.3354   21593646.2794
        -0.000          -0.000
  -5049993.433 9  -3923031.48546  23117133.081    23117132.4024   23117140.0024
        -0.000          -0.000
   2165083.830 9   1686889.55047  22059593.194    22059592.6924   22059597.7834
        -0.000          -0.000
   2498129.135 9   1946784.87347  22321998.681    22321998.1124   22322007.1514
        -0.000          -0.000
   -928916.819 9   -715575.98346  23761834.795    23761834.4354   23761842.9904
        -0.000          -0.000
   1046186.684 9    820689.20848  21168240.395    21168239.5334   21168246.4544
        -0.000          -0.000
  -4984202.224 9  -3862600.03349  20617425.323    20617424.7544   20617430.3064
        -0.000          -0.000
 01  5 16 23 51 30.0000000  0 10 29 23 21  3 31 18 17  9 15 14       0.000000036
  -5456220.180 9  -4237139.83648  20906763.324    20906763.1094   20906769.7614
        -0.000          -0.000
   2247553.875 9   1750411.54647  22911338.855    22911338.1304   22911345.1274
        -0.000          -0.000
  -1391275.962 9   -680905.35648  21404947.004    21404946.3944   21404952.4684
        -0.000          -0.000
  -1388770.144 9   -734276.25248  21595901.739    21595901.3194   21595908.2404
        -0.000          -0.000
  -5097931.841 9  -3960386.09846  23108010.574    23108009.9374   23108017.3484
        -0.000          -0.000
   2217046.369 9   1727379.83047  22069481.473    22069480.9064   22069485.9424
        -0.000          -0.000
   2564001.791 9   1998114.12947  22334533.975    22334533.3444   22334542.4504
        -0.000          -0.000
   -910043.682 9   -700869.58846  23765426.256    23765425.9674   23765434.2314
        -0.000          -0.000
   1090081.839 9    854893.21148  21176593.298    21176592.4804   21176599.4374
        -0.000          -0.000
  -5030319.594 9  -3898535.56449  20608649.422    20608648.8594   20608654.3764
        -0.000          -0.000
 01  5 16 23 52  0.0000000  0 10 29 23 21  3 31 18 17  9 15 14       0.000000037
  -5510204.732 9  -4279205.62148  20896490.318    20896490.1114   20896496.7534
        -0.000          -0.000
   2297465.738 9   1789303.85747  22920836.847    22920836.1554   22920842.9644
        -0.000          -0.000
  -1393945.048 9   -682985.13748  21404439.107    21404438.4764   21404444.4864
        -0.000          -0.000
  -1376342.123 9   -724592.10048  21598266.702    21598266.2714   21598273.1884
        -0.000          -0.000
  -5145368.429 9  -3997349.62646  23098983.712    23098983.0474   23098990.4774
        -0.000          -0.000
   2269065.385 9   1767914.11747  22079380.347    22079379.7744   22079384.9654
        -0.000          -0.000
   2630212.225 9   2049706.58347  22347133.463    22347132.8014   22347142.0324
        -0.000          -0.000
   -890631.466 9   -685743.09345  23769120.508    23769120.0904   23769127.8384
        -0.000          -0.000
   1134349.485 9    889387.46248  21185017.181    21185016.3684   21185023.3284
        -0.000          -0.000
  -5075927.948 9  -3934074.45949  20599970.401    20599969.8284   20599975.3104
        -0.000          -0.000
 01  5 16 23 52 30.0000000  0 10 29 23 21  3 31 18 17  9 15 14       0.000000036
  -5563740.341 9  -4320921.58548  20886302.740    20886302.5344   20886309.1704
        -0.000          -0.000
   2347365.344 9   1828186.66747  22930332.519    22930331.8124   22930338.3784
        -0.000          -0.000
  -1396534.457 9   -685002.82748  21403946.269    21403945.6774   21403951.7124
        -0.000          -0.000
  -1363372.856 9   -714486.19348  21600734.650    21600734.2434   21600741.2154
        -0.000          -0.000
  -5192300.782 9  -4033920.21746  23090052.646    23090052.0894   23090059.6864
        -0.000          -0.000
   2321141.528 9   1808492.91647  22089290.063    22089289.5434   22089294.7794
        -0.000          -0.000
   2696761.194 9   2101562.82547  22359797.239    22359796.6154   22359805.9824
        -0.000          -0.000
   -870679.438 9   -670195.96546  23772916.949    23772916.5934   23772924.7104
        -0.000          -0.000
   1178990.789 9    924172.87448  21193512.222    21193511.3974   21193518.3274
        -0.000          -0.000
  -5121025.769 9  -3969215.53649  20591388.497    20591387.9194   20591393.3954
        -0.000          -0.000
 01  5 16 23 53  0.0000000  0 10 29 23 21  3 31 18 17  9 15 14       0.000000038
  -5616825.452 9  -4362286.51048  20876200.895    20876200.6874   20876207.3204
        -0.000          -0.000
   2397253.004 9   1867060.13047  22939825.613    22939824.8714   22939831.7884
        -0.000          -0.000
  -1399044.282 9   -686958.50048  21403468.669    21403468.0774   21403474.0954
        -0.000          -0.000
  -1349863.079 9   -703959.11148  21603305.553    21603305.1234   21603312.1224
        -0.000          -0.000
  -5238727.560 9  -4070096.91146  23081218.029    23081217.4164   23081224.8164
        -0.000          -0.000
   2373274.601 9   1849116.07747  22099210.752    22099210.1954   22099215.4364
        -0.000          -0.000
   2763648.647 9   2153682.81247  22372525.594    22372525.0034   22372534.3084
        -0.000          -0.000
   -850187.074 9   -654227.85946  23776816.646    23776816.2234   23776824.6034
        -0.000          -0.000
   1224006.370 9    959249.94248  21202078.368    21202077.5574   21202084.5134
        -0.000          -0.000
  -5165612.014 9  -4003957.98249  20582903.950    20582903.3934   20582908.8604
        -0.000          -0.000
 01  5 16 23 53 30.0000000  0 10 29 23 21  3 31 18 17  9 15 14       0.000000037
  -5669460.350 9  -4403300.62448  20866184.721    20866184.5214   20866191.1154
        -0.000          -0.000
   2447127.640 9   1905923.43447  22949316.135    22949315.5694   22949322.7634
        -0.000          -0.000
  -1401476.089 9   -688853.38648  21403005.934    21403005.3084   21403011.2864
        -0.000          -0.000
  -1335814.769 9   -693012.39648  21605978.852    21605978.4524   21605985.4034
        -0.000          -0.000
  -5284648.427 9  -4105879.37146  23072479.503    23072478.9254   23072486.3024
        -0.000          -0.000
   2425463.070 9   1889782.40047  22109141.866    22109141.3404   22109146.6204
        -0.000          -0.000
   2830873.504 9   2206065.71447  22385318.225    22385317.6274   22385326.8284
        -0.000          -0.000
   -829155.125 9   -637839.27746  23780818.734    23780818.3424   23780826.8834
        -0.000          -0.000
   1269395.485 9    994618.06448  21210715.688    21210714.8684   21210721.8144
        -0.000          -0.000
  -5209686.827 9  -4038301.91349  20574516.739    20574516.1794   20574521.6234
        -0.000          -0.000
 01  5 16 23 54  0.0000000  0 10 29 23 21  3 31 18 17  9 15 14       0.000000038
  -5721643.236 9  -4443962.52048  20856254.590    20856254.3764   20856260.9434
        -0.000          -0.000
   2496989.859 9   1944777.11147  22958804.857    22958804.2104   22958811.3594
        -0.000          -0.000
  -1403829.083 9   -690686.85648  21402558.103    21402557.4984   21402563.4644
        -0.000          -0.000
  -1321228.219 9   -681646.27048  21608754.612    21608754.2114   21608761.1634
        -0.000          -0.000
  -5330061.141 9  -4141265.87546  23063837.797    23063837.2474   23063844.6534
        -0.000          -0.000
   2477707.217 9   1930492.12347  22119083.700    22119083.1274   22119088.3674
        -0.000          -0.000
   2898436.092 9   2258711.78747  22398175.044    22398174.4764   22398183.7054
        -0.000          -0.000
   -807582.863 9   -621029.65246  23784923.751    23784923.4804   23784931.9954
        -0.000          -0.000
   1315158.933 9   1030277.87348  21219424.243    21219423.4094   21219430.3164
        -0.000          -0.000
  -5253248.777 9  -4072246.21349  20566227.097    20566226.5384   20566231.9714
        -0.000          -0.000
 01  5 16 23 54 30.0000000  0 10 29 23 21  3 31 18 17  9 15 14       0.000000037
  -5773373.760 9  -4484271.92548  20846410.517    20846410.3214   20846416.8584
        -0.000          -0.000
   2546839.493 9   1983620.96047  22968291.001    22968290.2844   22968297.5544
        -0.000          -0.000
  -1406103.977 9   -692459.46648  21402125.227    21402124.5974   21402130.5424
        -0.000          -0.000
  -1306104.604 9   -669861.66248  21611632.649    21611632.1984   21611639.1244
        -0.000          -0.000
  -5374964.875 9  -4176255.75246  23055292.809    23055292.2044   23055299.6844
        -0.000          -0.000
   2530006.476 9   1971244.77747  22129035.921    22129035.3674   22129040.5434
        -0.000          -0.000
   2966335.960 9   2311620.65947  22411096.002    22411095.4214   22411104.7314
        -0.000          -0.000
   -785470.612 9   -603799.26846  23789131.578    23789131.2184   23789139.6744
        -0.000          -0.000
   1361296.712 9   1066229.36448  21228204.024    21228203.1814   21228210.0834
        -0.000          -0.000
  -5296297.412 9  -4105790.52949  20558035.152    20558034.5894   20558039.9874
        -0.000          -0.000
 01  5 16 23 55  0.0000000  0 10 29 23 21  3 31 18 17  9 15 14       0.000000036
  -5824650.508 9  -4524227.74148  20836652.833    20836652.6264   20836659.1384
        -0.000          -0.000
   2596676.904 9   2022455.25247  22977774.694    22977774.0484   22977781.3184
        -0.000          -0.000
  -1408301.138 9   -694171.50848  21401707.076    21401706.4574   21401712.3984
        -0.000          -0.000
  -1290444.542 9   -657659.03448  21614612.576    21614612.1754   21614619.1444
        -0.000          -0.000
  -5419357.779 9  -4210847.59546  23046845.007    23046844.4414   23046851.9844
        -0.000          -0.000
   2582360.519 9   2012040.12747  22138998.622    22138998.0704   22139003.2084
        -0.000          -0.000
   3034573.169 9   2364792.41747  22424081.102    22424080.5524   22424089.9454
        -0.000          -0.000
   -762817.796 9   -586147.71746  23793441.760    23793441.5634   23793450.3284
        -0.000          -0.000
   1407809.608 9   1102473.14848  21237055.052    21237054.2734   21237061.2064
        -0.000          -0.000
  -5338831.499 9  -4138933.90049  20549941.121    20549940.5524   20549945.9544
        -0.000          -0.000
 01  5 16 23 55 30.0000000  0 10 29 23 21  3 31 18 17  9 15 14       0.000000038
  -5875472.848 9  -4563829.47348  20826981.615    20826981.4014   20826987.8724
        -0.000          -0.000
   2646501.734 9   2061279.79247  22987256.121    22987255.4444   22987262.5734
        -0.000          -0.000
  -1410421.307 9   -695823.55448  21401303.616    21401302.9964   21401308.9204
        -0.000          -0.000
  -1274249.218 9   -645039.32148  21617694.414    21617694.0224   21617701.0164
        -0.000          -0.000
  -5463238.779 9  -4245040.56646  23038494.878    23038494.2424   23038501.6784
        -0.000          -0.000
   2634768.802 9   2052877.74147  22148971.582    22148970.9874   22148976.1534
        -0.000          -0.000
   3103147.210 9   2418226.61847  22437130.577    22437129.9084   22437139.3144
        -0.000          -0.000
   -739624.939 9   -568075.26946  23797855.498    23797855.1674   23797863.9634
        -0.000          -0.000
   1454697.265 9   1139008.95148  21245977.531    21245976.7164   21245983.6624
        -0.000          -0.000
  -5380850.661 9  -4171676.03149  20541945.075    20541944.5084   20541949.8774
        -0.000          -0.000
 01  5 16 23 56  0.0000000  0 10 29 23 21  3 31 18 17  9 15 14       0.000000038
  -5925841.636 9  -4603077.79148  20817396.694    20817396.4564   20817402.9104
        -0.000          -0.000
   2696312.438 9   2100093.32047  22996734.835    22996734.1624   22996741.2434
        -0.000          -0.000
  -1412466.120 9   -697416.88248  21400914.483    21400913.8564   21400919.7714
        -0.000          -0.000
  -1257521.380 9   -632004.65748  21620877.637    21620877.2484   21620884.2544
        -0.000          -0.000
  -5506608.426 9  -4278835.04846  23030241.757    23030241.1564   23030248.6354
        -0.000          -0.000
   2687229.591 9   2093756.26147  22158954.400    22158953.8854   22158959.1514
        -0.000          -0.000
   3172056.215 9   2471921.84847  22450243.607    22450242.9204   22450252.3064
        -0.000          -0.000
   -715893.319 9   -549583.02746  23802371.435    23802371.1724   23802379.4734
        -0.000          -0.000
   1501958.330 9   1175835.71848  21254971.073    21254970.2404   21254977.1814
        -0.000          -0.000
  -5422355.779 9  -4204017.60749  20534046.850    20534046.2864   20534051.6374
        -0.000          -0.000
 01  5 16 23 56 30.0000000  0 10 29 23 21  3 31 18 17  9 15 14       0.000000037
  -5975754.114 9  -4641970.54348  20807898.599    20807898.3524   20807904.7864
        -0.000          -0.000
   2746111.072 9   2138897.41847  23006211.245    23006210.5324   23006217.7634
        -0.000          -0.000
  -1414433.958 9   -698950.22948  21400540.006    21400539.3754   21400545.3144
        -0.000          -0.000
  -1240259.992 9   -618554.24448  21624162.373    21624161.9844   21624169.0434
        -0.000          -0.000
  -5549463.299 9  -4312228.46146  23022086.810    23022086.2614   23022093.4754
        -0.000          -0.000
   2739744.325 9   2134676.83347  22168947.713    22168947.1474   22168952.3144
        -0.000          -0.000
   3241301.794 9   2525879.32947  22463420.576    22463419.9484   22463429.3984
        -0.000          -0.000
   -691621.010 9   -530669.50046  23806990.128    23806989.8944   23806998.2534
        -0.000          -0.000
   1549594.930 9   1212955.09948  21264036.060    21264035.2154   21264042.1514
        -0.000          -0.000
  -5463344.115 9  -4235956.50249  20526246.993    20526246.4454   20526251.7624
        -0.000          -0.000
 01  5 16 23 57  0.0000000  0 10 29 23 21  3 31 18 17  9 15 14       0.000000038
  -6025210.399 9  -4680507.82048  20798487.308    20798487.0674   20798493.4814
        -0.000          -0.000
   2795896.368 9   2177691.13147  23015685.148    23015684.4634   23015691.8414
        -0.000          -0.000
  -1416326.189 9   -700424.66448  21400179.898    21400179.3044   21400185.2454
        -0.000          -0.000
  -1222467.585 9   -604690.04748  21627548.160    21627547.7704   21627554.8084
        -0.000          -0.000
  -5591803.459 9  -4345220.71746  23014029.716    23014029.1204   23014036.4834
        -0.000          -0.000
   2792311.516 9   2175638.26047  22178950.837    22178950.3424   22178955.6454
        -0.000          -0.000
   3310882.638 9   2580098.05947  22476661.429    22476660.8114   22476670.3224
        -0.000          -0.000
   -666809.036 9   -511335.46846  23811711.736    23811711.5454   23811719.6804
        -0.000          -0.000
   1597606.038 9   1250366.31448  21273172.319    21273171.4604   21273178.4054
        -0.000          -0.000
  -5503816.296 9  -4267493.19549  20518545.340    20518544.7874   20518550.0784
        -0.000          -0.000
 01  5 16 23 57 30.0000000  0 10 29 23 21  3 31 18 17  9 15 14       0.000000039
  -6074209.771 9  -4718689.06548  20789162.975    20789162.7524   20789169.1404
        -0.000          -0.000
   2845668.703 9   2216474.74347  23025156.511    23025155.8164   23025163.2604
        -0.000          -0.000
  -1418143.203 9   -701840.49048  21399834.130    21399833.5144   21399839.4404
        -0.000          -0.000
  -1204144.995 9   -590412.72648  21631034.873    21631034.4564   21631041.4384
        -0.000          -0.000
  -5633627.482 9  -4377810.85146  23006070.840    23006070.2994   23006077.5304
        -0.000          -0.000
   2844931.062 9   2216640.49547  22188964.066    22188963.5304   22188968.7304
        -0.000          -0.000
   3380798.538 9   2634577.88146  22489966.231    22489965.5114   22489974.8864
        -0.000          -0.000
   -641457.481 9   -491580.94346  23816536.442    23816536.1144   23816543.5574
        -0.000          -0.000
   1645992.032 9   1288069.64348  21282379.857    21282379.0164   21282385.9984
        -0.000          -0.000
  -5543771.512 9  -4298627.05949  20510942.093    20510941.5314   20510946.8064
        -0.000          -0.000
 01  5 16 23 58  0.0000000  0 10 29 23 21  3 31 18 17  9 15 14       0.000000039
  -6122752.338 9  -4756514.35948  20779925.539    20779925.3274   20779931.6944
        -0.000          -0.000
   2895427.223 9   2255247.59347  23034625.281    23034624.5914   23034631.7924
        -0.000          -0.000
  -1419886.031 9   -703198.51148  21399502.391    21399501.7834   21399507.7284
        -0.000          -0.000
  -1185294.087 9   -575723.72048  21634622.079    21634621.6834   21634628.7024
        -0.000          -0.000
  -5674935.009 9  -4409998.52546  22998210.392    22998209.7114   22998216.8104
        -0.000          -0.000
   2897601.638 9   2257682.48447  22198986.987    22198986.4714   22198991.6034
        -0.000          -0.000
   3451048.177 9   2689317.74547  22503334.377    22503333.7064   22503343.0724
        -0.000          -0.000
   -615567.622 9   -471406.91446  23821463.383    23821462.9044   23821469.8724
        -0.000          -0.000
   1694752.123 9   1326064.46848  21291658.670    21291657.7924   21291664.7874
        -0.000          -0.000
  -5583210.037 9  -4329358.31249  20503437.122    20503436.5564   20503441.8234
        -0.000          -0.000
 01  5 16 23 58 30.0000000  0 10 29 23 21  3 31 18 17  9 15 14       0.000000039
  -6170836.369 9  -4793982.35048  20770775.375    20770775.1824   20770781.5264
        -0.000          -0.000
   2945173.013 9   2294010.52746  23044091.438    23044090.7684   23044097.8314
        -0.000          -0.000
  -1421554.132 9   -704498.30548  21399184.930    21399184.3434   21399190.2474
        -0.000          -0.000
  -1165915.002 9   -560623.15948  21638309.897    21638309.4504   21638316.4874
        -0.000          -0.000
  -5715723.971 9  -4441782.07047  22990448.401    22990447.7744   22990455.0454
        -0.000          -0.000
   2950323.874 9   2298764.74247  22209019.796    22209019.1764   22209024.4254
        -0.000          -0.000
   3521632.271 9   2744318.22246  22516766.161    22516765.5074   22516774.8434
        -0.000          -0.000
   -589138.331 9   -450812.61746  23826492.685    23826492.1444   23826499.6564
        -0.000          -0.000
   1743887.505 9   1364351.73548  21301008.837    21301007.9794   21301014.9764
        -0.000          -0.000
  -5622130.271 9  -4359685.69849  20496030.812    20496030.2544   20496035.4774
        -0.000          -0.000
 01  5 16 23 59  0.0000000  0 10 29 23 21  3 31 18 17  9 15 14       0.000000038
  -6218461.138 9  -4831092.47948  20761712.627    20761712.4264   20761718.7564
        -0.000          -0.000
   2994906.021 9   2332763.50147  23053555.347    23053554.7064   23053561.6654
        -0.000          -0.000
  -1423147.808 9   -705740.10448  21398881.673    21398881.0634   21398886.9474
        -0.000          -0.000
  -1146009.372 9   -545112.29948  21642097.762    21642097.3584   21642104.3974
        -0.000          -0.000
  -5755993.169 9  -4473160.65546  22982785.491    22982784.8594   22982791.9744
        -0.000          -0.000
   3003097.527 9   2339887.05547  22219062.247    22219061.6544   22219066.9274
        -0.000          -0.000
   3592550.436 9   2799579.02146  22530261.595    22530260.8554   22530270.3094
        -0.000          -0.000
   -562169.702 9   -429798.12846  23831624.124    23831623.6514   23831631.9444
        -0.000          -0.000
   1793398.183 9   1402931.43848  21310430.392    21310429.5464   21310436.5614
        -0.000          -0.000
  -5660531.594 9  -4389608.73449  20488723.249    20488722.6824   20488727.8804
        -0.000          -0.000
